DW5450 Weather Reports


time (UTC)temp
F
wind
direction
speed
knots
gust
knots
rain 1hr
in
rain 24hr
in
rain mn
in
humidity
%
barometer
mb
20220930163015 86 319 0.9 4.3 0.00 0.00 0.00 76 1011.0
20220930161513 84 350 0.9 3.5 0.00 0.00 0.00 77 1011.0
20220930160010 83 17 0.9 3.5 0.00 0.00 0.00 80 1011.0
20220930154502 81 9 0.9 3.5 0.00 0.00 0.00 82 1011.0
20220930153058 80 341 0.9 2.6 0.00 0.00 0.00 84 1010.9
20220930151609 78 321 0.9 3.5 0.00 0.00 0.00 85 1010.9
20220930150056 77 338 0.9 5.2 0.00 0.00 0.00 86 1010.9
20220930144556 76 334 0.9 4.3 0.00 0.00 0.00 88 1010.9
20220930143055 75 307 1.7 3.5 0.00 0.00 0.00 88 1010.9
20220930141612 75 317 0.9 3.5 0.00 0.00 0.00 89 1010.8
20220930140108 74 314 0.0 2.6 0.00 0.00 0.00 89 1010.7
20220930134605 73 311 1.7 4.3 0.00 0.00 0.00 89 1010.5
20220930133052 72 329 0.9 2.6 0.00 0.00 0.00 89 1010.3
20220930131552 72 316 0.0 0.9 0.00 0.00 0.00 89 1010.4
20220930130109 73 315 0.9 4.3 0.00 0.00 0.00 89 1010.4
20220930124551 73 312 1.7 3.5 0.00 0.00 0.00 89 1010.3
20220930123048 73 311 1.7 3.5 0.00 0.00 0.00 89 1010.1
20220930121555 74 314 0.9 2.6 0.00 0.00 0.00 89 1010.1
20220930120056 74 317 0.9 3.5 0.00 0.00 0.00 89 1010.0
20220930114606 74 313 1.7 4.3 0.00 0.00 0.00 89 1010.0
20220930113047 74 309 0.9 2.6 0.00 0.00 0.00 89 1010.0
20220930111548 75 313 0.9 5.2 0.00 0.00 0.00 89 1010.0
20220930110112 75 313 0.9 3.5 0.00 0.00 0.00 89 1010.0
20220930104601 75 315 0.9 2.6 0.00 0.00 0.00 89 1010.1
20220930103046 75 327 0.0 1.7 0.00 0.00 0.00 89 1010.2
20220930101555 76 312 0.0 0.9 0.00 0.00 0.00 89 1010.2
20220930100035 76 312 0.0 2.6 0.00 0.00 0.00 89 1010.3
20220930094536 76 313 0.9 2.6 0.00 0.00 0.00 89 1010.4
20220930093032 76 318 0.9 1.7 0.00 0.00 0.00 88 1010.4
20220930091537 77 318 0.0 1.7 0.00 0.00 0.00 88 1010.6
20220930090029 77 323 0.0 1.7 0.00 0.00 0.00 88 1010.4
20220930084552 77 323 0.0 2.6 0.00 0.00 0.00 88 1010.5
20220930083036 78 323 0.0 0.9 0.00 0.00 0.00 88 1010.6
20220930081524 78 323 0.9 1.7 0.00 0.00 0.00 88 1010.7
20220930080023 78 323 0.0 1.7 0.00 0.00 0.00 88 1010.8
20220930074521 78 323 0.0 1.7 0.00 0.00 0.00 88 1010.9
20220930073019 79 323 0.0 1.7 0.00 0.00 0.00 88 1011.1
20220930071539 79 323 0.0 1.7 0.00 0.00 0.00 87 1011.2
20220930070018 79 323 0.9 2.6 0.00 0.00 0.00 87 1011.4
20220930064521 79 355 0.0 2.6 0.00 0.00 0.00 87 1011.4
20220930063014 80 360 0.0 0.9 0.00 0.00 0.00 87 1011.5
20220930061512 80 360 0.0 0.9 0.00 0.00 0.00 87 1011.6
20220930060016 80 360 0.0 0.9 0.00 0.00 0.00 86 1011.6
20220930054517 80 360 0.0 0.9 0.00 0.00 0.00 86 1011.7
20220930053045 80 360 0.0 1.7 0.00 0.00 0.00 86 1011.6
20220930051508 81 360 0.0 0.0 0.00 0.00 0.00 86 1011.6
20220930050007 81 360 0.0 0.9 0.00 0.00 0.00 86 1011.6
20220930044508 81 360 0.0 0.9 0.00 0.00 0.00 86 1011.7
20220930043007 81 101 0.0 1.7 0.00 0.00 0.00 86 1011.7
20220930041506 81 101 0.0 0.9 0.00 0.00 0.00 85 1011.6
20220930040006 81 101 0.0 0.0 0.00 0.00 0.00 85 1011.5
20220930034511 81 101 0.0 0.9 0.00 0.00 0.00 85 1011.3
20220930033005 81 104 0.0 1.7 0.00 0.00 0.00 84 1011.3
20220930031505 81 117 0.0 1.7 0.00 0.00 0.00 84 1011.1
20220930030008 81 117 0.0 0.9 0.00 0.00 0.00 83 1010.8
20220930024505 82 117 0.0 0.9 0.00 0.00 0.00 82 1010.7
20220930023002 82 117 0.0 1.7 0.00 0.00 0.00 82 1010.5
20220930021502 83 117 0.0 1.7 0.00 0.00 0.00 82 1010.4
20220930020003 83 117 0.0 1.7 0.00 0.00 0.00 81 1010.2
20220930014502 83 118 0.9 2.6 0.00 0.00 0.00 81 1010.1
20220930013100 84 116 0.9 2.6 0.00 0.00 0.00 80 1010.0
20220930011600 84 121 0.9 2.6 0.00 0.00 0.00 79 1009.8
20220930010101 85 119 1.7 3.5 0.00 0.00 0.00 78 1009.9
20220930004601 86 128 0.9 2.6 0.00 0.00 0.00 77 1009.8
20220930003113 86 119 1.7 6.1 0.00 0.00 0.00 76 1009.8
20220930001558 87 118 0.9 5.2 0.00 0.00 0.00 74 1009.8
20220930000109 87 142 0.9 5.2 0.00 0.00 0.00 74 1009.9
20220929234554 88 109 2.6 7.0 0.00 0.00 0.00 73 1010.0
20220929233103 88 114 1.7 7.0 0.00 0.00 0.00 74 1010.0
20220929231556 88 85 2.6 6.1 0.00 0.00 0.00 73 1010.0
20220929230102 88 157 0.9 7.0 0.00 0.00 0.00 74 1010.3
20220929224551 88 120 1.7 7.8 0.00 0.00 0.00 74 1010.4
20220929223053 89 141 2.6 7.8 0.00 0.00 0.00 74 1010.5
20220929221552 89 151 2.6 7.8 0.00 0.00 0.00 73 1010.3
20220929220047 89 158 2.6 7.0 0.00 0.00 0.00 75 1010.7
20220929214551 89 150 1.7 9.6 0.00 0.00 0.00 74 1010.9
20220929213050 90 155 3.5 9.6 0.00 0.00 0.00 74 1011.1
20220929211544 90 156 2.6 8.7 0.00 0.00 0.00 73 1011.2
20220929210101 90 139 2.6 10.4 0.00 0.00 0.00 72 1011.0
20220929204541 91 129 3.5 7.8 0.00 0.00 0.00 71 1011.1
20220929203045 91 161 2.6 6.1 0.00 0.00 0.00 72 1011.5
20220929201545 91 161 3.5 7.8 0.00 0.00 0.00 70 1011.8
20220929200046 90 104 2.6 7.0 0.00 0.00 0.00 70 1012.1
20220929194534 91 199 3.5 7.0 0.00 0.00 0.00 71 1012.4
20220929193040 91 196 3.5 7.0 0.00 0.00 0.00 72 1012.5
20220929191549 90 171 2.6 7.0 0.00 0.00 0.00 68 1012.7
20220929190034 87 155 0.9 2.6 0.00 0.00 0.00 66 1013.2
20220929184540 86 360 1.7 7.0 0.00 0.00 0.00 63 1013.4
20220929183038 90 78 1.7 7.8 0.00 0.00 0.00 67 1013.7
20220929181539 90 115 1.7 8.7 0.00 0.00 0.00 75 1013.5
20220929180028 90 91 3.5 7.0 0.00 0.00 0.00 72 1013.6
20220929174556 91 172 2.6 7.8 0.00 0.00 0.00 72 1013.7
20220929173034 91 138 1.7 5.2 0.00 0.00 0.00 70 1013.8
20220929171525 91 185 0.9 6.1 0.00 0.00 0.00 70 1014.0
20220929170025 91 88 1.7 6.1 0.00 0.00 0.00 69 1014.0
20220929164523 89 180 0.9 5.2 0.00 0.00 0.00 70 1013.9